Home > Weather > Morges > Past weeks

Flag for Switzerland Weather for the Past 2 Weeks in Morges, Vaud, Switzerland

Now
36 °F

Chilly.


Feels Like: 32 °F
Forecast: 40 / 46 °F
Wind: 5 mph from Southeast

Location: Aigle

Current Time: Feb 12, 2016 at 3:23:47 AM

Latest Report: Feb 12, 2016 at 2:00 AM


Visibility: N/A

Pressure: 29.80 "Hg

Humidity: 89%

Dew point: 33 °F

Location of MorgesLocation

Historic Weather in Morges — Graph

°F

Morges Temperature Yesterday

Maximum temperature yesterday: 42 °F (at 3:00 PM)
Minimum temperature yesterday: 31 °F (at 7:00 AM)
Average temperature yesterday: 38 °F

High & Low Weather Summary for the Past Weeks

 TemperatureHumidityPressure
High57 °F (Feb 1, 2:00 PM)100% (Feb 5, 9:00 AM)30.60 "Hg (Feb 5, 9:00 AM)
Low31 °F (Feb 11, 7:00 AM)32% (Feb 7, 8:00 AM)29.47 "Hg (Feb 9, 6:00 PM)
Average44 °F79%30.15 "Hg
* Reported Jan 28 1:00 AM — Feb 12 1:00 AM, Morges, Weather by CustomWeather, © 2016

Note: Actual official high and low records may vary slightly from our data, if they occured in-between our weather recording intervals... More about our weather records

Advertising

Morges Weather History for the Previous 24 Hours

 ConditionsComfort  
Time TempWeatherWind HumidityBarometerVisibility
1:00 AM
Fri, Feb 12
35 °FChilly.2 mph90%29.82 "HgN/A
12:00 AM36 °FChilly.5 mph86%29.82 "HgN/A
10:00 PM
Thu, Feb 11
35 °FChilly.3 mph91%29.82 "HgN/A
9:00 PM35 °FChilly.3 mph90%29.83 "HgN/A
8:00 PM36 °FChilly.3 mph82%29.82 "HgN/A
7:00 PM40 °FOvercast.3 mph65%29.80 "Hg9 mi
6:00 PM39 °FChilly.3 mph66%29.78 "HgN/A
5:00 PM40 °FChilly.7 mph65%29.78 "HgN/A
4:00 PM40 °FQuite cool.10 mph58%29.76 "HgN/A
3:00 PM42 °FQuite cool.2 mph48%29.75 "HgN/A
2:00 PM42 °FQuite cool.18 mph49%29.76 "HgN/A
1:00 PM42 °FPartly sunny.7 mph56%29.81 "Hg22 mi
12:00 PM42 °FQuite cool.6 mph59%29.85 "HgN/A
11:00 AM40 °FChilly.9 mph59%29.87 "HgN/A
10:00 AM37 °FChilly.8 mph68%29.87 "HgN/A
9:00 AM34 °FChilly.8 mph81%29.88 "HgN/A
8:00 AM32 °FChilly.5 mph87%29.90 "HgN/A
7:00 AM31 °FChilly.3 mph92%29.90 "HgN/A
5:00 AM32 °FChilly.3 mph94%29.89 "HgN/A
Weather by CustomWeather, © 2016

See weather overviewHow to use our weather pages